Погода в Талалихино

Россия / Саратовская область     52°06′39″N   47°39′20″E
темп.,
°C
ветер,
м/с
пор.,
м/с
влажн.,
%
обл.,
%
осадки,
мм/ч
давл.,
гПа
погр.,
м
16 мая, вс
вс1601:00+19ююв385522 0.0 1017136
04:00+18ююв225119 0.0 101716
07:00+20юв13475 0.0 1018109
10:00+26ю573342 0.0 1018615
13:00+31ю58235 0.0 10171863
16:00+32ю682332 0.0 10163560
19:00+28ююв333841 0.0 101541
22:00+23юв334333 0.0 101634
17 мая, пн
пн1701:00+21юв394690 0.0 1016174
04:00+20ююв225394 0.0 101723
07:00+21ююв115460 0.0 101859
10:00+27вюв343242 0.0 1018465
13:00+31ююв582175 0.0 10173112
16:00+31ююв661918 0.0 10173279
19:00+27ююв493422 0.0 1016223
22:00+21вюв34375 0.0 101738
18 мая, вт
вт1801:00+19в334074 0.0 101736
04:00+17всв334422 0.0 101636
07:00+19св375277 0.0 1016176
10:00+27вюв573242 0.0 1016720
13:00+31юв57215 0.0 10151705
16:00+32юв67175 0.0 10143838
19:00+28вюв47354 0.0 1014146
22:00+22в47373 0.0 101478
19 мая, ср
ср1901:00+20всв47440 0.0 1014101
04:00+18всв411461 0.0 1013177
07:00+20в512515 0.0 1013311
10:00+27вюв693514 0.0 1013813
13:00+32юв89235 0.0 10123741
16:00+31юв89245 0.0 10113657
19:00+21з7116251 0.0 1012389
22:00+18з387244 0.2 1013218
20 мая, чт
чт2001:00+18юв2383100 0.9 1013110
04:00+17ю4985100 0.9 1014317
07:00+18ююз487889 0.2 1015473
10:00+20ююз465425 0.2 10161092
13:00+23ююз69396 0.0 10162308
16:00+23юз8103890 0.0 10162661
19:00+21зюз365111 0.0 1017925
22:00+17ююв1163100 0.0 101811